Weather reports worldwide

Advertisment
La Coruna/Alvedro, Spain (8002): temperature & dewpoint: 20.09.2018 11:00:00 - 26.09.2018 11:00:00 (CEST)La Coruna/Alvedro, Spain (8002): wind speed: 20.09.2018 11:00:00 - 26.09.2018 11:00:00 (CEST)La Coruna/Alvedro, Spain (8002): wind direction: 20.09.2018 11:00:00 - 26.09.2018 11:00:00 (CEST)La Coruna/Alvedro, Spain (8002): reduced air pressure: 20.09.2018 11:00:00 - 26.09.2018 11:00:00 (CEST)La Coruna/Alvedro, Spain (8002): visibility: 20.09.2018 11:00:00 - 26.09.2018 11:00:00 (CEST)
Date & Time tt [°C] td [°C] ff [km/h] ff [kn] dd ppp [hPa] vv [km]
26.09.2018 11:00:00 18,9 11,3 9 5 S 1021,9 10
26.09.2018 10:00:00 15,5 10,3 11 6 S 1021,6 10
26.09.2018 09:00:00 11,9 9,8 5 3 SSW 1021,5 10
26.09.2018 08:00:00 12,4 9,8 5 3 SSW 1021,1 10
26.09.2018 07:00:00 12,2 9,9 4 2 - 1020,9 10
26.09.2018 06:00:00 12,5 9,7 9 5 SSE 1021,0 10
26.09.2018 05:00:00 12,8 9,8 8 4 SSE 1021,3 10
26.09.2018 04:00:00 12,4 9,6 9 5 S 1021,8 30
26.09.2018 03:00:00 13,7 9,5 0 0 N 1022,0 10
26.09.2018 02:00:00 14,2 9,5 4 2 - 1022,3 10
26.09.2018 01:00:00 14,7 9,3 5 3 ENE 1022,5 10
26.09.2018 00:00:00 15,4 9,3 4 2 ESE 1022,7 10
25.09.2018 23:00:00 15,8 9,5 8 4 ESE 1022,6 10
25.09.2018 22:00:00 16,5 9,4 9 5 E 1022,5 30
25.09.2018 21:00:00 17,6 9,7 13 7 E 1022,3 30
25.09.2018 20:00:00 19,6 9,8 18 10 E 1021,9 10
25.09.2018 19:00:00 21,7 9,9 21 11 E 1021,5 30
25.09.2018 18:00:00 23,3 10,4 26 14 ENE 1021,5 30
25.09.2018 17:00:00 24,3 10,6 21 11 ENE 1021,7 30
25.09.2018 16:00:00 25,1 9,8 16 9 ENE 1021,9 30
25.09.2018 15:00:00 24,8 9,3 16 9 ENE 1022,7 30
25.09.2018 14:00:00 23,6 9,0 13 7 ENE 1023,3 30
25.09.2018 13:00:00 22,0 9,4 13 7 ENE 1024,0 10
25.09.2018 12:00:00 20,2 7,9 13 7 ENE 1024,5 10
25.09.2018 11:00:00 17,7 7,2 4 2 - 1024,7 10
25.09.2018 10:00:00 15,6 6,9 8 4 SSE 1024,6 30
25.09.2018 09:00:00 11,8 7,4 9 5 S 1024,3 10
25.09.2018 08:00:00 11,5 7,0 0 0 N 1024,2 10
25.09.2018 07:00:00 11,5 6,8 2 1 - 1024,0 10
25.09.2018 06:00:00 13,3 6,9 4 2 ESE 1024,1 30
25.09.2018 05:00:00 13,3 7,1 5 3 ESE 1024,5 10
25.09.2018 04:00:00 12,9 7,8 0 0 N 1024,9 10
25.09.2018 03:00:00 13,1 8,4 0 0 N 1025,3 30
25.09.2018 02:00:00 14,1 8,7 5 3 NE 1025,6 10
25.09.2018 01:00:00 14,4 8,9 9 5 E 1026,0 30
25.09.2018 00:00:00 15,0 9,4 16 9 E 1026,4 10
24.09.2018 23:00:00 14,9 10,3 11 6 ENE 1026,6 30
24.09.2018 22:00:00 15,1 10,6 9 5 NE 1026,4 10
24.09.2018 21:00:00 16,1 10,4 24 13 E 1026,1 10
24.09.2018 20:00:00 17,6 10,7 24 13 ENE 1025,7 30
24.09.2018 19:00:00 19,3 11,3 24 13 ENE 1025,4 10
24.09.2018 18:00:00 20,6 12,2 22 12 ENE 1025,2 10
24.09.2018 17:00:00 21,3 12,7 22 12 NE 1025,6 10
24.09.2018 16:00:00 21,8 13,1 24 13 NE 1025,9 10
24.09.2018 15:00:00 23,1 13,4 16 9 ENE 1026,7 10
24.09.2018 14:00:00 21,3 13,5 18 10 E 1027,4 10
24.09.2018 13:00:00 20,1 12,8 22 12 ENE 1028,1 10
24.09.2018 12:00:00 19,8 13,3 21 11 E 1028,4 10
24.09.2018 11:00:00 18,6 13,0 22 12 E 1028,5 10
24.09.2018 10:00:00 18,2 13,1 26 14 E 1028,1 10
24.09.2018 09:00:00 17,4 14,7 11 6 NNE 1027,8 10
24.09.2018 08:00:00 17,3 14,6 8 4 N 1027,6 10
24.09.2018 07:00:00 17,3 14,6 11 6 N 1027,4 30
24.09.2018 06:00:00 17,3 14,8 8 4 N 1027,5 10
24.09.2018 05:00:00 17,5 15,1 11 6 NNE 1027,5 10
24.09.2018 04:00:00 17,6 15,4 13 7 NNE 1027,9 10
24.09.2018 03:00:00 17,7 16,6 9 5 N 1028,1 10
24.09.2018 02:00:00 18,1 16,4 13 7 NNE 1028,1 30
24.09.2018 01:00:00 17,9 16,6 11 6 NNE 1028,2 10
24.09.2018 00:00:00 17,7 17,1 9 5 N 1028,1 10
23.09.2018 23:00:00 17,6 17,4 8 4 N 1028,1 10
23.09.2018 22:00:00 17,9 17,7 9 5 N 1027,8 6
23.09.2018 21:00:00 18,4 18,1 11 6 N 1027,4 0,3
23.09.2018 20:00:00 19,1 18,6 8 4 N 1027,0 1,0
23.09.2018 19:00:00 20,0 18,8 8 4 NNE 1026,6 13
23.09.2018 18:00:00 20,5 18,7 9 5 N 1026,2 19
23.09.2018 17:00:00 22,1 18,7 9 5 NE 1026,2 10
23.09.2018 16:00:00 22,0 18,7 9 5 NNE 1026,4 10
23.09.2018 15:00:00 21,9 18,2 5 3 NNW 1026,4 30
23.09.2018 14:00:00 22,0 18,2 2 1 - 1026,3 10
23.09.2018 13:00:00 20,9 17,7 4 2 - 1026,4 10
23.09.2018 12:00:00 20,1 17,3 4 2 - 1026,4 10
23.09.2018 11:00:00 18,9 17,2 8 4 SSE 1025,9 13
23.09.2018 10:00:00 17,5 16,5 8 4 S 1025,3 9
23.09.2018 09:00:00 17,2 16,6 4 2 S 1025,1 8
23.09.2018 08:00:00 17,2 16,4 4 2 S 1024,6 7
23.09.2018 07:00:00 17,3 16,2 5 3 S 1024,5 10
23.09.2018 06:00:00 17,6 16,6 0 0 N 1024,4 10
23.09.2018 05:00:00 17,5 16,5 5 3 S 1024,3 10
23.09.2018 04:00:00 17,5 16,6 5 3 S 1024,7 10
23.09.2018 03:00:00 17,4 16,6 5 3 S 1025,0 16
23.09.2018 02:00:00 17,6 16,6 5 3 SSE 1025,3 10
23.09.2018 01:00:00 17,6 16,6 4 2 - 1025,5 10
23.09.2018 00:00:00 17,6 16,6 5 3 S 1025,4 10
22.09.2018 23:00:00 17,9 16,6 4 2 S 1025,4 30
22.09.2018 22:00:00 18,6 16,7 2 1 - 1024,9 10
22.09.2018 21:00:00 19,7 16,9 4 2 - 1024,6 10
22.09.2018 20:00:00 21,4 17,2 5 3 NNW 1024,2 30
22.09.2018 19:00:00 21,3 17,3 8 4 NNE 1023,9 10
22.09.2018 18:00:00 23,1 17,7 9 5 N 1023,6 30
22.09.2018 17:00:00 23,2 17,9 13 7 NW 1023,9 30
22.09.2018 16:00:00 23,1 17,8 15 8 NNE 1023,8 10
22.09.2018 15:00:00 23,3 18,9 11 6 NNE 1023,9 10
22.09.2018 14:00:00 22,8 18,3 11 6 ENE 1024,1 10
22.09.2018 13:00:00 23,1 18,9 5 3 NNW 1024,2 10
22.09.2018 12:00:00 21,1 17,8 8 4 NNE 1024,2 10
22.09.2018 11:00:00 19,4 18,2 0 0 N 1024,0 10
22.09.2018 10:00:00 16,7 16,5 5 3 S 1023,5 10
22.09.2018 09:00:00 14,7 14,5 9 5 S 1023,3 0,1
22.09.2018 08:00:00 14,8 14,6 4 2 - 1022,8 0,1
22.09.2018 07:00:00 15,1 14,9 8 4 S 1022,4 0,2
22.09.2018 06:00:00 15,1 14,9 4 2 - 1022,3 0,2
22.09.2018 05:00:00 15,9 15,7 5 3 S 1022,3 0,2
22.09.2018 04:00:00 16,4 16,2 5 3 S 1022,4 0,3
22.09.2018 03:00:00 16,7 16,5 8 4 S 1022,6 2,0
22.09.2018 02:00:00 17,3 17,1 5 3 SSE 1022,6 0,2
22.09.2018 01:00:00 17,6 17,3 5 3 SSW 1022,9 0,2
22.09.2018 00:00:00 17,8 17,5 5 3 SSW 1023,0 0,4
21.09.2018 23:00:00 18,2 17,7 5 3 S 1023,0 3,3
21.09.2018 22:00:00 18,0 17,5 4 2 - 1022,7 6
21.09.2018 21:00:00 18,5 17,6 2 1 E 1022,5 20
21.09.2018 20:00:00 18,5 17,7 4 2 SSW 1022,4 22
21.09.2018 19:00:00 18,4 17,9 0 0 N 1022,3 10
21.09.2018 18:00:00 17,8 17,5 5 3 NNE 1022,3 3,0
21.09.2018 17:00:00 17,7 17,1 8 4 N 1022,5 1,5
21.09.2018 16:00:00 19,1 17,4 4 2 - 1022,4 8
21.09.2018 15:00:00 18,0 17,5 4 2 - 1022,3 7
21.09.2018 14:00:00 17,3 16,8 8 4 NNE 1022,5 0,9
21.09.2018 13:00:00 18,2 17,2 5 3 N 1022,4 10
21.09.2018 12:00:00 17,3 16,9 8 4 N 1022,2 8
21.09.2018 11:00:00 16,9 16,4 9 5 N 1021,9 4,0
21.09.2018 10:00:00 17,9 17,4 4 2 - 1021,0 3,0
21.09.2018 09:00:00 17,6 16,6 9 5 NNE 1020,4 9
21.09.2018 08:00:00 19,4 15,9 16 9 SSW 1019,4 10
21.09.2018 07:00:00 19,3 15,8 16 9 S 1018,9 10
21.09.2018 06:00:00 18,7 15,8 15 8 S 1019,1 30
21.09.2018 05:00:00 18,5 15,6 8 4 S 1019,0 10
21.09.2018 04:00:00 18,6 15,7 15 8 SSW 1019,0 30
21.09.2018 03:00:00 18,9 15,8 16 9 S 1018,9 30
21.09.2018 02:00:00 18,9 15,8 18 10 S 1018,9 30
21.09.2018 01:00:00 18,9 15,8 18 10 SSW 1019,1 10
21.09.2018 00:00:00 19,1 16,0 16 9 SSW 1019,1 10
20.09.2018 23:00:00 19,3 16,0 18 10 SSW 1019,3 10
20.09.2018 22:00:00 19,6 15,7 11 6 SW 1019,4 10
20.09.2018 21:00:00 20,0 15,2 16 9 SSW 1018,9 10
20.09.2018 20:00:00 21,7 14,5 18 10 SW 1018,8 30
20.09.2018 19:00:00 24,2 14,4 9 5 - 1018,5 10
20.09.2018 18:00:00 24,6 15,8 5 3 - 1018,2 10
20.09.2018 17:00:00 22,2 16,1 8 4 NNE 1018,6 30
20.09.2018 16:00:00 23,7 16,7 5 3 NE 1018,3 10
20.09.2018 15:00:00 25,7 16,3 15 8 S 1018,7 10
20.09.2018 14:00:00 21,9 15,8 8 4 NNE 1019,6 10
20.09.2018 13:00:00 20,0 15,4 8 4 NNE 1020,2 10
20.09.2018 12:00:00 18,4 14,9 5 3 NE 1020,7 10
20.09.2018 11:00:00 17,3 14,8 0 0 N 1020,6 10

tt = temperature
td = dewpoint
ff = wind speed
dd = wind direction
ppp = reduced air pressure
vv = visibility

Next stations